Weather in Banjul

Gambia     13°27′13″N   16°34′28″W
temp.,
°C
wind,
m/s
gust,
m/s
humid.,
%
clouds,
%
prec.,
mm/h
press.,
hPa
HPBL,
m
17 may, mon
mon1700:00+23nw698199 0.0 1012191
03:00+22nw5781100 0.0 1011225
06:00+23nw4578100 0.0 1011180
09:00+25n4653100 0.0 1012173
12:00+29wnw334397 0.0 1012379
15:00+24w777099 0.0 1009176
18:00+23wnw8117870 0.0 1008230
21:00+23wnw81281100 0.0 1010259
18 may, tue
tue1800:00+23wnw6782100 0.0 1011187
03:00+22w4584100 0.0 1011184
06:00+22wnw3484100 0.0 1011193
09:00+23wnw3375100 0.0 1013232
12:00+24wnw5471100 0.0 1013295
15:00+25w666996 0.0 1010206
18:00+24wnw91079100 0.0 1009319
21:00+23wnw71184100 0.0 1011253
19 may, wed
wed1900:00+23wnw468511 0.0 1012260
03:00+22w348513 0.0 1011186
06:00+22w3382100 0.0 1012102
09:00+23w347599 0.0 1013175
12:00+24wnw546829 0.0 1013323
15:00+25w656834 0.0 1011244
18:00+24wnw89748 0.0 1010303
21:00+23wnw58815 0.0 1012267
20 may, thu
thu2000:00+23wsw34805 0.0 1014166
03:00+23wsw45809 0.0 1012173
06:00+23sw348178 0.0 1013142
09:00+24wsw347686 0.0 1014207
12:00+26w666437 0.0 1014345
15:00+25wnw66727 0.0 1012269
18:00+24wnw56755 0.0 1011247
21:00+24wnw56805 0.0 1013202
21 may, fri
fri2100:00+23w468298 0.0 1014186
03:00+23wnw57815 0.0 1012261
06:00+23wnw358413 0.0 1013247
09:00+24nw337535 0.0 1015292
12:00+24w43695 0.0 1014317
15:00+25wnw65641 0.0 1012283
18:00+25w77700 0.0 1010229
21:00+23wnw69780 0.0 1012293